Location: Glion
(46.4330°N, 6.9246°E)
Time: 07:12:02
(UTC+00:00)

Meteor 1-20 Rocket - Pass Details

Date: 03 March 2021
Orbit: 820 x 891 km, 81.2° (Epoch: 14 April)

Event Time Altitude Azimuth Distance (km) Brightness Sun altitude
Rises 18:07:02 0° 191° (S) 3,338 7.5 -8.7°
Reaches altitude 10° 18:09:25 10° 192° (SSW) 2,410 6.7 -9.1°
Maximum altitude 18:14:51 84° 280° (W) 834 4.3 -10.0°
Drops below altitude 10° 18:20:24 10° 10° (N) 2,443 6.5 -11.0°
Sets 18:22:49 0° 11° (N) 3,389 7.3 -11.4°
